This is the latest recevied weather packets stored in our database for station/object HB9HUT-13. If no packets are shown the sender has not sent any weather packets the latest 10 day(s).
| Time | Temp. | Humidity | Pressure | Rain* | Wind** | Luminosity | Snow |
|---|---|---|---|---|---|---|---|
| 1778274387 | 10.56° C | 50% | 846.8 hPa | - | - | - | - |
| 1778274387 | 10.56° C | 50% | 846.8 hPa | - | - | - | - |
| 1778273484 | 11.11° C | 47% | 846.8 hPa | - | - | - | - |
| 1778273484 | 11.11° C | 47% | 846.8 hPa | - | - | - | - |
| 1778272581 | 11.11° C | 47% | 846.8 hPa | - | - | - | - |
| 1778272581 | 11.11° C | 47% | 846.8 hPa | - | - | - | - |
| 1778271678 | 11.67° C | 46% | 847 hPa | - | - | - | - |
| 1778270775 | 11.67° C | 47% | 846.9 hPa | - | - | - | - |
| 1778270775 | 11.67° C | 47% | 846.9 hPa | - | - | - | - |
| 1778269872 | 12.22° C | 47% | 846.5 hPa | - | - | - | - |
| 1778269872 | 12.22° C | 47% | 846.5 hPa | - | - | - | - |
| 1778268969 | 12.78° C | 45% | 846.4 hPa | - | - | - | - |
| 1778268066 | 13.33° C | 44% | 845.8 hPa | - | - | - | - |
| 1778267163 | 13.89° C | 43% | 845.4 hPa | - | - | - | - |
| 1778266260 | 14.44° C | 42% | 844.9 hPa | - | - | - | - |
| 1778265357 | 15.56° C | 42% | 844.9 hPa | - | - | - | - |
| 1778264454 | 16.11° C | 42% | 845 hPa | - | - | - | - |
| 1778263551 | 16.67° C | 43% | 844.6 hPa | - | - | - | - |
| 1778262648 | 17.22° C | 43% | 844.3 hPa | - | - | - | - |
| 1778261745 | 17.78° C | 42% | 844.2 hPa | - | - | - | - |
| 1778260842 | 18.89° C | 41% | 844.1 hPa | - | - | - | - |
| 1778259939 | 20° C | 40% | 843.8 hPa | - | - | - | - |
| 1778259036 | 22.22° C | 38% | 843.9 hPa | - | - | - | - |
| 1778258133 | 23.33° C | 38% | 843.7 hPa | - | - | - | - |
| 1778257230 | 25° C | 38% | 843.6 hPa | - | - | - | - |
* Rain since midnight (hover to see other rain measurements)
** Current wind speed in m/s (hover to see current wind gust speed)